FW5461 Weather Reports


time (UTC)temp
F
wind
direction
speed
knots
gust
knots
rain 1hr
in
rain 24hr
in
rain mn
in
humidity
%
barometer
mb
20260507012534 55 360 1.7 10.4 0.02 0.30 0.30 89 1009.8
20260507012031 55 360 2.6 10.4 0.02 0.30 0.30 90 1009.7
20260507011537 55 360 1.7 8.7 0.02 0.30 0.30 90 1009.4
20260507011030 55 360 1.7 8.7 0.02 0.30 0.30 90 1009.3
20260507010532 55 360 1.7 11.3 0.02 0.30 0.30 90 1009.2
20260507010048 56 360 1.7 11.3 0.02 0.30 0.30 91 1009.1
20260507005529 56 360 2.6 9.6 0.02 0.30 0.30 91 1009.1
20260507005128 56 360 2.6 10.4 0.02 0.30 0.30 91 1009.1
20260507004532 56 360 4.3 15.6 0.02 0.30 0.30 91 1009.1
20260507004028 57 360 7.8 15.6 0.02 0.30 0.30 90 1008.9
20260507003528 59 360 4.3 9.6 0.00 0.28 0.28 92 1008.5
20260507003027 59 360 0.9 2.6 0.00 0.28 0.28 92 1008.1
20260507002527 59 360 0.9 3.5 0.00 0.28 0.28 92 1008.1
20260507002030 59 360 0.9 4.3 0.00 0.28 0.28 92 1008.1
20260507001527 59 360 1.7 4.3 0.00 0.28 0.28 92 1008.2
20260507001026 59 360 2.6 4.3 0.00 0.28 0.28 92 1008.2
20260507000526 59 360 1.7 3.5 0.00 0.28 0.28 92 1008.2
20260507000026 59 360 1.7 3.5 0.00 0.28 0.28 92 1008.2
20260506235527 59 360 0.9 2.6 0.00 0.28 0.28 92 1008.1
20260506235025 59 360 0.9 4.3 0.00 0.28 0.28 92 1008.1
20260506234528 59 360 1.7 7.8 0.00 0.28 0.28 91 1008.0
20260506234025 59 360 0.9 7.8 0.00 0.28 0.28 91 1007.9
20260506233525 59 360 2.6 7.0 0.00 0.28 0.28 91 1007.9
20260506233025 59 360 2.6 7.0 0.00 0.28 0.28 92 1007.8
20260506232526 59 360 2.6 7.8 0.00 0.28 0.28 92 1007.8
20260506232024 59 360 3.5 8.7 0.00 0.28 0.28 92 1007.7
20260506231524 59 360 2.6 8.7 0.00 0.28 0.28 91 1007.7
20260506231024 59 360 2.6 7.0 0.00 0.28 0.28 91 1007.8
20260506230523 59 360 2.6 7.0 0.00 0.28 0.28 91 1007.7
20260506230027 59 360 2.6 7.0 0.00 0.28 0.28 91 1007.6
20260506225523 59 360 3.5 7.0 0.00 0.28 0.28 91 1007.6
20260506225023 59 360 2.6 8.7 0.01 0.28 0.28 91 1007.5
20260506224523 59 360 3.5 8.7 0.01 0.28 0.28 91 1007.4
20260506224026 59 360 4.3 8.7 0.03 0.28 0.28 91 1007.3
20260506223522 59 360 2.6 8.7 0.04 0.28 0.28 91 1007.5
20260506223022 59 360 2.6 7.0 0.06 0.28 0.28 91 1007.4
20260506222524 59 360 3.5 7.8 0.07 0.28 0.28 91 1007.5
20260506222023 59 360 3.5 7.8 0.07 0.28 0.28 91 1007.4
20260506221521 59 360 3.5 9.6 0.08 0.28 0.28 91 1007.5
20260506221021 59 360 2.6 9.6 0.08 0.28 0.28 91 1007.5
20260506220520 59 360 3.5 8.7 0.09 0.28 0.28 91 1007.6
20260506220028 59 360 3.5 7.0 0.09 0.28 0.28 91 1007.6
20260506215524 59 360 3.5 7.8 0.09 0.28 0.28 91 1007.7
20260506215019 59 360 2.6 7.8 0.08 0.27 0.27 91 1007.6
20260506214520 59 360 3.5 8.7 0.08 0.27 0.27 91 1007.6
20260506214020 59 360 2.6 8.7 0.07 0.25 0.25 91 1007.5
20260506213518 59 360 2.6 7.0 0.06 0.24 0.24 90 1007.5
20260506213018 59 360 2.6 7.0 0.04 0.22 0.22 90 1007.7
20260506212520 59 360 2.6 5.2 0.04 0.21 0.21 90 1007.7
20260506212020 59 360 2.6 7.0 0.05 0.21 0.21 90 1007.7
20260506211518 59 360 2.6 7.0 0.05 0.20 0.20 90 1007.8
20260506211018 59 360 1.7 7.0 0.04 0.19 0.19 90 1007.8
20260506210518 59 360 2.6 7.0 0.05 0.19 0.19 90 1007.8
20260506210020 59 360 2.6 7.8 0.05 0.19 0.19 90 1007.9
20260506205515 59 360 3.5 7.8 0.06 0.19 0.19 90 1007.8
20260506205015 59 360 3.5 7.0 0.06 0.19 0.19 90 1008.0
20260506204515 59 360 1.7 5.2 0.07 0.19 0.19 90 1008.0
20260506204014 59 360 1.7 7.0 0.07 0.18 0.18 89 1007.9
20260506203515 59 360 3.5 7.0 0.08 0.18 0.18 89 1008.0
20260506203014 59 360 2.6 5.2 0.08 0.17 0.17 89 1008.0
20260506202516 59 360 0.9 8.7 0.08 0.17 0.17 89 1008.0
20260506202013 59 360 4.3 8.7 0.08 0.16 0.16 89 1008.2
20260506201525 59 360 2.6 7.8 0.07 0.15 0.15 89 1008.1
20260506201012 59 360 2.6 8.7 0.08 0.15 0.15 89 1008.1
20260506200511 59 360 3.5 9.6 0.07 0.14 0.14 89 1008.3
20260506200010 59 360 3.5 10.4 0.07 0.14 0.14 89 1008.3
20260506195510 60 360 4.3 10.4 0.07 0.13 0.13 89 1008.3
20260506195009 60 360 4.3 8.7 0.07 0.13 0.13 88 1008.4
20260506194509 60 360 2.6 8.7 0.06 0.12 0.12 88 1008.3
20260506194009 60 360 5.2 8.7 0.05 0.11 0.11 88 1008.4
20260506193508 60 360 2.6 12.2 0.05 0.10 0.10 88 1008.5
20260506193008 60 360 7.0 12.2 0.04 0.09 0.09 88 1008.6
20260506192508 60 360 4.3 11.3 0.05 0.09 0.09 88 1008.5
20260506192008 60 360 5.2 11.3 0.04 0.08 0.08 88 1008.5
20260506191507 60 360 5.2 13.0 0.05 0.08 0.08 88 1008.5
20260506191007 60 360 6.1 13.0 0.04 0.07 0.07 87 1008.6
20260506190505 60 360 5.2 13.0 0.04 0.07 0.07 87 1008.7
20260506190006 60 360 6.1 13.0 0.03 0.06 0.06 87 1008.8
20260506185504 60 360 7.8 13.0 0.03 0.06 0.06 87 1008.9
20260506185004 60 360 5.2 10.4 0.03 0.06 0.06 87 1009.0
20260506184514 60 360 3.5 10.4 0.03 0.06 0.06 87 1009.0
20260506184004 60 360 4.3 10.4 0.02 0.05 0.05 86 1008.9
20260506183504 60 360 2.6 13.9 0.02 0.05 0.05 86 1008.9
20260506183004 60 360 7.0 13.9 0.03 0.05 0.05 85 1008.9
20260506182504 60 360 7.0 13.0 0.02 0.04 0.04 85 1009.1
20260506182003 61 360 7.0 11.3 0.03 0.04 0.04 85 1009.0
20260506181503 61 360 5.2 12.2 0.03 0.03 0.03 85 1009.1
20260506181003 61 360 4.3 12.2 0.03 0.03 0.03 84 1009.2
20260506180503 62 360 3.5 10.4 0.03 0.03 0.03 84 1009.0
20260506180003 62 360 6.1 13.0 0.03 0.03 0.03 84 1008.9
20260506175501 62 360 6.1 13.0 0.03 0.03 0.03 84 1008.8
20260506175000 62 360 3.5 10.4 0.03 0.03 0.03 83 1008.9
20260506174601 62 360 5.2 11.3 0.03 0.03 0.03 83 1009.0
20260506174103 63 360 5.2 13.0 0.03 0.03 0.03 82 1009.2
20260506173603 63 360 3.5 13.0 0.03 0.03 0.03 82 1009.1
20260506173100 63 360 4.3 9.6 0.02 0.02 0.02 81 1009.0
20260506172600 64 360 5.2 9.6 0.02 0.02 0.02 80 1009.3
20260506172057 64 360 4.3 10.4 0.01 0.01 0.01 79 1009.6
20260506171607 65 360 5.2 11.3 0.00 0.00 0.00 78 1009.6
20260506171058 65 360 4.3 11.3 0.00 0.00 0.00 76 1009.8
20260506170556 66 360 5.2 11.3 0.00 0.00 0.00 75 1009.9
20260506170058 66 360 5.2 13.9 0.00 0.00 0.00 74 1009.9
20260506165555 67 360 7.0 13.9 0.00 0.00 0.00 72 1009.9
20260506165055 67 360 4.3 12.2 0.00 0.00 0.00 72 1009.8
20260506164555 67 360 7.0 13.0 0.00 0.00 0.00 70 1009.7
20260506164055 67 360 7.0 13.0 0.00 0.00 0.00 69 1009.7
20260506163554 68 360 4.3 12.2 0.00 0.00 0.00 69 1009.7
20260506163057 68 360 4.3 16.5 0.00 0.00 0.00 69 1009.6
20260506162554 68 360 7.8 16.5 0.00 0.00 0.00 67 1009.6
20260506162058 68 360 7.0 12.2 0.00 0.00 0.00 67 1009.6
20260506161554 68 360 3.5 12.2 0.00 0.00 0.00 67 1009.6
20260506161052 68 360 4.3 12.2 0.00 0.00 0.00 68 1009.7
20260506160551 68 360 5.2 11.3 0.00 0.00 0.00 68 1009.7
20260506160100 68 360 4.3 10.4 0.00 0.00 0.00 69 1009.9
20260506155548 67 360 2.6 7.0 0.00 0.00 0.00 70 1010.2
20260506155047 67 360 1.7 5.2 0.00 0.00 0.00 71 1010.2
20260506154546 67 360 1.7 5.2 0.00 0.00 0.00 71 1010.3
20260506154048 67 360 2.6 5.2 0.00 0.00 0.00 71 1010.3
20260506153545 67 360 0.9 4.3 0.00 0.00 0.00 71 1010.4
20260506153044 67 360 1.7 5.2 0.00 0.00 0.00 71 1010.4
20260506152544 66 360 3.5 7.8 0.00 0.00 0.00 72 1010.5
20260506152044 66 360 2.6 7.8 0.00 0.00 0.00 72 1010.6
20260506151543 66 360 2.6 7.0 0.00 0.00 0.00 72 1010.7
20260506151040 66 360 2.6 7.0 0.00 0.00 0.00 73 1010.8
20260506150539 66 360 2.6 7.0 0.00 0.00 0.00 73 1010.8
20260506150038 65 360 2.6 7.0 0.00 0.00 0.00 74 1010.8
20260506145537 65 360 1.7 7.0 0.00 0.00 0.00 74 1010.9
20260506145035 65 360 3.5 9.6 0.00 0.00 0.00 75 1010.9
20260506144548 64 360 4.3 9.6 0.00 0.00 0.00 75 1010.9
20260506144035 64 360 5.2 9.6 0.00 0.00 0.00 75 1010.9
20260506143534 64 360 3.5 8.7 0.00 0.00 0.00 75 1010.9
20260506143035 64 360 3.5 9.6 0.00 0.00 0.00 75 1010.9
20260506142532 64 360 2.6 9.6 0.00 0.00 0.00 76 1011.0
20260506142031 64 360 3.5 7.8 0.00 0.00 0.00 76 1010.9
20260506141530 63 360 4.3 7.8 0.00 0.00 0.00 76 1011.0
20260506141030 63 360 4.3 7.8 0.00 0.00 0.00 76 1010.9
20260506140530 63 360 5.2 11.3 0.00 0.00 0.00 76 1010.9
20260506140033 63 360 5.2 11.3 0.00 0.00 0.00 77 1010.9
20260506135530 63 360 1.7 9.6 0.00 0.00 0.00 77 1011.0
20260506135027 63 360 3.5 9.6 0.00 0.00 0.00 77 1010.8
20260506134528 62 360 4.3 8.7 0.00 0.00 0.00 78 1010.8
20260506134027 62 360 4.3 9.6 0.00 0.00 0.00 78 1010.7
20260506133523 62 360 4.3 11.3 0.00 0.00 0.00 79 1010.7
20260506133029 61 360 6.1 11.3 0.00 0.00 0.00 79 1010.7
20260506132521 61 360 5.2 9.6 0.00 0.00 0.00 79 1010.9
20260506132022 61 360 5.2 10.4 0.00 0.00 0.00 79 1010.8
20260506131522 61 360 4.3 10.4 0.00 0.00 0.00 79 1010.8
20260506131023 61 360 5.2 9.6 0.00 0.00 0.00 79 1010.8
20260506130520 61 360 2.6 8.7 0.00 0.00 0.00 80 1011.0
20260506130019 61 360 3.5 8.7 0.00 0.00 0.00 80 1011.0
20260506125518 61 360 3.5 8.7 0.00 0.00 0.00 80 1011.0
20260506125018 61 360 3.5 8.7 0.00 0.00 0.00 80 1010.8
20260506124521 60 360 0.9 8.7 0.00 0.00 0.00 81 1010.8
20260506124017 60 360 1.7 8.7 0.00 0.00 0.00 81 1011.1
20260506123515 60 360 1.7 5.2 0.00 0.00 0.00 82 1011.3
20260506123015 60 360 0.9 5.2 0.00 0.00 0.00 82 1011.4
20260506122515 60 360 2.6 5.2 0.00 0.00 0.00 82 1011.4
20260506122016 59 360 1.7 3.5 0.00 0.00 0.00 83 1011.4
20260506121513 59 360 0.0 7.8 0.00 0.00 0.00 83 1011.3
20260506121014 59 360 2.6 7.8 0.00 0.00 0.00 83 1011.4
20260506120513 59 360 3.5 7.0 0.00 0.00 0.00 83 1011.4
20260506120013 58 360 0.0 5.2 0.00 0.00 0.00 84 1011.3
20260506115511 58 360 1.7 5.2 0.00 0.00 0.00 84 1011.4
20260506115012 58 360 1.7 4.3 0.00 0.00 0.00 84 1011.5
20260506114529 58 360 0.9 3.5 0.00 0.00 0.00 84 1011.5
20260506114010 58 360 0.0 4.3 0.00 0.00 0.00 84 1011.4
20260506113509 58 360 1.7 4.3 0.00 0.00 0.00 84 1011.6
20260506113009 58 360 0.0 3.5 0.00 0.00 0.00 85 1011.5
20260506112512 57 360 1.7 7.0 0.00 0.00 0.00 85 1011.7
20260506112010 57 360 2.6 7.0 0.00 0.00 0.00 85 1011.5
20260506111508 57 360 0.0 2.6 0.00 0.00 0.00 85 1011.5
20260506111010 57 360 0.0 2.6 0.00 0.00 0.00 86 1011.5
20260506110510 57 360 0.0 2.6 0.00 0.00 0.00 86 1011.4
20260506110008 56 360 0.0 3.5 0.00 0.00 0.00 86 1011.6
20260506105505 56 360 0.9 3.5 0.00 0.00 0.00 86 1011.9
20260506105006 56 360 0.0 3.5 0.00 0.00 0.00 85 1011.8
20260506104504 55 360 0.0 3.5 0.00 0.00 0.00 85 1011.7
20260506104103 55 360 0.0 1.7 0.00 0.00 0.00 85 1011.6
20260506103505 55 360 0.0 0.9 0.00 0.00 0.00 85 1011.9
20260506103001 55 360 0.0 0.9 0.00 0.00 0.00 85 1011.9
20260506102603 55 360 0.0 0.9 0.00 0.00 0.00 85 1011.8
20260506102100 55 360 0.0 0.9 0.00 0.00 0.00 85 1011.7
20260506101600 55 360 0.0 1.7 0.00 0.00 0.00 85 1011.5
20260506101058 55 360 0.0 1.7 0.00 0.00 0.00 85 1011.4
20260506100557 55 360 0.0 2.6 0.00 0.00 0.00 84 1011.3
20260506100111 55 360 0.9 2.6 0.00 0.00 0.00 84 1011.4
20260506095558 55 360 0.0 2.6 0.00 0.00 0.00 84 1011.4
20260506095057 55 360 0.0 1.7 0.00 0.00 0.00 84 1011.3
20260506094554 55 360 0.0 3.5 0.00 0.00 0.00 83 1011.2
20260506094052 55 360 0.0 3.5 0.00 0.00 0.00 83 1011.2
20260506093554 55 360 0.9 2.6 0.00 0.00 0.00 83 1011.4
20260506093055 55 360 0.0 1.7 0.00 0.00 0.00 83 1011.4
20260506092553 56 360 0.0 0.9 0.00 0.00 0.00 83 1011.3
20260506092051 56 360 0.0 1.7 0.00 0.00 0.00 83 1011.3
20260506091554 56 360 0.0 1.7 0.00 0.00 0.00 83 1011.2
20260506091049 56 360 0.0 2.6 0.00 0.00 0.00 83 1011.3
20260506090550 56 360 0.0 3.5 0.00 0.00 0.00 83 1011.3
20260506090050 56 360 0.9 4.3 0.00 0.00 0.00 83 1011.4
20260506085548 56 360 1.7 4.3 0.00 0.00 0.00 82 1011.4
20260506085048 56 360 0.9 3.5 0.00 0.00 0.00 82 1011.4
20260506084548 56 360 0.0 2.6 0.00 0.00 0.00 82 1011.5
20260506084048 56 360 0.0 1.7 0.00 0.00 0.00 82 1011.4
20260506083547 56 360 0.0 2.6 0.00 0.00 0.00 82 1011.4
20260506083048 56 360 0.0 2.6 0.00 0.00 0.00 81 1011.7
20260506082546 57 360 0.0 2.6 0.00 0.00 0.00 81 1011.6
20260506082046 57 360 0.0 1.7 0.00 0.00 0.00 81 1011.7
20260506081548 57 360 0.0 1.7 0.00 0.00 0.00 80 1011.5
20260506081045 57 360 0.0 1.7 0.00 0.00 0.00 80 1011.5
20260506080545 57 360 0.0 0.9 0.00 0.00 0.00 80 1011.5
20260506073041 57 360 0.0 3.5 0.00 0.00 0.00 78 1011.3
20260506072541 57 360 0.9 2.6 0.00 0.00 0.00 77 1011.4
20260506072041 57 360 0.0 2.6 0.00 0.00 0.00 77 1011.4
20260506071539 58 360 0.0 0.0 0.00 0.00 0.00 76 1011.3
20260506071038 58 360 0.0 0.9 0.00 0.00 0.00 76 1011.3
20260506070541 58 360 0.0 0.9 0.00 0.00 0.00 76 1011.3
20260506062037 59 360 0.0 1.7 0.00 0.00 0.00 75 1011.0
20260506061534 59 360 0.0 1.7 0.00 0.00 0.00 74 1011.1
20260506061037 59 360 0.0 1.7 0.00 0.00 0.00 74 1011.2
20260506060532 59 360 0.0 0.9 0.00 0.00 0.00 74 1011.1
20260506051027 60 360 0.9 3.5 0.00 0.00 0.00 72 1011.3
20260506050528 60 360 1.7 3.5 0.00 0.00 0.00 72 1011.3
20260506045026 60 360 0.0 1.7 0.00 0.00 0.00 71 1011.3
20260506044531 60 360 0.0 1.7 0.00 0.00 0.00 71 1011.3
20260506044024 60 360 0.0 0.0 0.00 0.00 0.00 71 1011.4
20260506043524 61 360 0.0 0.0 0.00 0.00 0.00 71 1011.4
20260506043026 61 360 0.0 0.9 0.00 0.00 0.00 70 1011.4
20260506042526 61 360 0.0 0.9 0.00 0.00 0.00 70 1011.3
20260506042024 61 360 0.0 1.7 0.00 0.00 0.00 70 1011.4
20260506041525 61 360 0.0 2.6 0.00 0.00 0.00 69 1011.3
20260506041021 61 360 0.0 2.6 0.00 0.00 0.00 69 1011.4
20260506040524 61 360 0.9 2.6 0.00 0.00 0.00 69 1011.4
20260506040020 61 360 0.9 2.6 0.00 0.00 0.00 68 1011.3
20260506035524 61 360 0.9 4.3 0.00 0.00 0.00 68 1011.4
20260506035019 62 360 0.9 4.3 0.00 0.00 0.00 68 1011.3
20260506034520 62 360 0.0 4.3 0.00 0.00 0.00 67 1011.3
20260506034020 62 360 0.9 4.3 0.00 0.00 0.00 67 1011.5
20260506033518 62 360 0.9 3.5 0.00 0.00 0.00 67 1011.4
20260506033026 62 360 0.9 4.3 0.00 0.00 0.00 66 1011.4
20260506032518 62 360 0.0 4.3 0.00 0.00 0.00 66 1011.4
20260506032018 62 360 0.9 5.2 0.00 0.00 0.00 66 1011.5
20260506031529 63 360 0.9 5.2 0.00 0.00 0.00 66 1011.4
20260506031019 63 360 1.7 7.0 0.00 0.00 0.00 65 1011.4
20260506030523 63 360 2.6 7.8 0.00 0.00 0.00 65 1011.6
20260506030041 63 360 2.6 7.8 0.00 0.00 0.00 65 1011.4
20260506025517 63 360 3.5 7.0 0.00 0.00 0.00 65 1011.5
20260506025019 63 360 1.7 7.0 0.00 0.00 0.00 65 1011.5
20260506024525 63 360 1.7 7.0 0.00 0.00 0.00 65 1011.4
20260506024017 64 360 2.6 5.2 0.00 0.00 0.00 64 1011.5
20260506023517 64 360 2.6 5.2 0.00 0.00 0.00 64 1011.3
20260506023016 64 360 1.7 5.2 0.00 0.00 0.00 64 1011.3
20260506022516 64 360 2.6 7.0 0.00 0.00 0.00 64 1011.3
20260506022016 64 360 3.5 7.8 0.00 0.00 0.00 64 1011.2
20260506021516 64 360 3.5 10.4 0.00 0.00 0.00 64 1011.2
20260506021016 64 360 2.6 10.4 0.00 0.00 0.00 63 1011.2
20260506020522 65 360 5.2 8.7 0.00 0.00 0.00 63 1011.0
20260506020016 65 360 3.5 7.8 0.00 0.00 0.00 63 1011.0
20260506015517 65 360 3.5 7.8 0.00 0.00 0.00 63 1010.9
20260506015015 65 360 2.6 7.8 0.00 0.00 0.00 63 1011.0
20260506014514 65 360 3.5 7.8 0.00 0.00 0.00 62 1011.1
20260506014014 66 360 1.7 7.0 0.00 0.00 0.00 62 1011.0
20260506013514 66 360 1.7 8.7 0.00 0.00 0.00 62 1011.0
20260506013015 66 360 3.5 8.7 0.00 0.00 0.00 61 1010.9